Terminal Aerodrome Forecast
Issued by NWS

Home | Current Version | Previous Version | Text Only | Print | Product List | Glossary On
Versions: 1 2 3 4 5 6 7 8 9 10 11 12 13 14 15 16 17 18 19 20 21 22 23 24 25 26 27 28 29 30 31 32 33 34 35 36 37 38 39 40 41
000
FTAK31 PANC 061148
TAFAEN
TAF
PAEN 061148Z 0612/0712 19010KT P6SM FEW050
     FM062000 19012KT P6SM FEW007 BKN060
     FM070400 20012G20KT 6SM -RASN SCT010 BKN035
     FM071000 18012G20KT 5SM -RA BR SCT005 BKN010 OVC030=

USA.gov is the U.S. government's official web portal to all federal, state and local government web resources and services.